Location: Paris
(48.6709°N, 2.3750°E)
Time: 21:12:39
(UTC+01:00)

ISS - Pass Details

Date: 04 November 2021
Orbit: 417 x 422 km, 51.6° (Epoch: 04 December)

Event Time Altitude Azimuth Distance (km) Brightness Sun altitude
Exits shadow 04:03:12 - 73° (ENE) 1,897 0.4 -36.1°
Enters shadow 05:00:21 -65° 272° (W) 12,042 3.6 -26.9°
Sets 05:41:27 0° 97° (E) 2,359 1.6 -20.2°
